Flag for France Weather past 2 weeks in Périgueux, France

Now
81 °F

Passing clouds.


Feels Like: 82 °F
Forecast: 60 / 75 °F
Wind: 10 mph from West

Location: Bergerac Airport

Current Time: Jul 7, 2015 at 11:53:36 AM

Latest Report: Jul 7, 2015 at 11:30 AM


Visibility: N/A

Pressure: 29.98 "Hg

Humidity: 58%

Dew point: 64 °F

Location of PérigueuxLocation

Historic Weather in Périgueux — Graph

°F

Périgueux temperature yesterday

Maximum temperature yesterday: 93 °F (at 5:30 PM)
Minimum temperature yesterday: 61 °F (at 5:30 AM)
Average temperature yesterday: 77 °F

Past Weeks' High & Low Weather Summary

 TemperatureHumidityPressure
High99 °F (Jun 30, 3:00 PM)100% (Jun 25, 5:00 AM)30.21 "Hg (Jun 25, 5:00 AM)
Low46 °F (Jun 24, 6:00 AM)22% (Jun 25, 4:00 PM)29.86 "Hg (Jun 30, 6:30 PM)
Average75 °F62%30.07 "Hg
* Reported Jun 22 10:00 AM — Jul 7 10:30 AM, Périgueux, Weather by CustomWeather, © 2015

Note: Actual official high and low records may vary slightly from our data, if they occured in-between our weather recording intervals... More about our weather records

Advertising

Périgueux weather history for previous 24 hours

 ConditionsComfort  
Time TempWeatherWind HumidityBarometerVisibility
10:30 AM
Tue, Jul 7
79 °FPassing clouds.8 mph65%29.98 "HgN/A
10:00 AM77 °FPassing clouds.6 mph69%29.98 "HgN/A
9:30 AM75 °FPassing clouds.6 mph74%29.98 "HgN/A
9:00 AM75 °FPassing clouds.6 mph74%29.95 "HgN/A
8:30 AM73 °FSunny.8 mph78%29.95 "Hg10 mi
8:00 AM73 °FPassing clouds.5 mph83%29.95 "HgN/A
7:30 AM70 °FSunny.1 mph94%29.95 "Hg10 mi
7:00 AM66 °FClear.1 mph94%29.95 "Hg10 mi
6:30 AM66 °FClear.No wind94%29.95 "Hg10 mi
6:00 AM68 °FClear.3 mph88%29.95 "Hg10 mi
5:30 AM68 °FClear.2 mph88%29.92 "Hg10 mi
5:00 AM68 °FClear.6 mph88%29.92 "Hg10 mi
4:30 AM68 °FClear.2 mph88%29.95 "Hg10 mi
4:00 AM68 °FClear.2 mph94%29.95 "Hg10 mi
3:30 AM68 °FClear.2 mph94%29.95 "Hg10 mi
3:00 AM70 °FClear.1 mph88%29.95 "Hg10 mi
2:30 AM70 °FClear.2 mph88%29.95 "Hg10 mi
2:00 AM70 °FClear.2 mph88%29.98 "Hg10 mi
1:30 AM70 °FClear.2 mph88%29.98 "Hg10 mi
1:00 AM72 °FClear.2 mph83%29.98 "Hg10 mi
12:30 AM72 °FClear.2 mph83%29.98 "Hg10 mi
12:00 AM73 °FClear.No wind78%29.98 "Hg10 mi
11:00 PM
Mon, Jul 6
75 °FClear.1 mph78%29.98 "Hg10 mi
10:30 PM77 °FSunny.No wind74%29.98 "Hg10 mi
10:00 PM82 °FSunny.1 mph62%29.95 "Hg10 mi
9:30 PM86 °FSunny.3 mph52%29.95 "Hg10 mi
9:00 PM88 °FSunny.3 mph49%29.95 "Hg10 mi
8:30 PM90 °FSunny.2 mph43%29.95 "Hg10 mi
8:00 PM91 °FSunny.3 mph44%29.95 "Hg10 mi
7:30 PM91 °FPassing clouds.3 mph41%29.98 "HgN/A
7:00 PM91 °FPassing clouds.6 mph44%29.98 "HgN/A
6:30 PM91 °FPassing clouds.6 mph41%29.98 "HgN/A
6:00 PM93 °FSunny.2 mph41%29.98 "Hg10 mi
5:30 PM93 °FSunny.1 mph44%29.98 "Hg10 mi
5:00 PM91 °FPassing clouds.5 mph46%30.01 "HgN/A
4:30 PM91 °FSunny.3 mph44%30.01 "Hg10 mi
4:00 PM91 °FPassing clouds.5 mph44%30.01 "HgN/A
3:30 PM90 °FPassing clouds.3 mph46%30.04 "HgN/A
3:00 PM90 °FSunny.2 mph43%30.04 "Hg10 mi
2:30 PM88 °FSunny.5 mph46%30.04 "Hg10 mi
2:00 PM86 °FPassing clouds.5 mph49%30.07 "HgN/A
1:30 PM86 °FSunny.2 mph49%30.07 "Hg10 mi
1:00 PM84 °FPassing clouds.5 mph51%30.07 "HgN/A
12:30 PM84 °FSunny.3 mph55%30.07 "Hg10 mi
12:00 PM82 °FSunny.3 mph55%30.09 "Hg10 mi
11:30 AM81 °FSunny.2 mph58%30.09 "Hg10 mi
11:00 AM79 °FSunny.2 mph58%30.09 "Hg10 mi
Weather by CustomWeather, © 2015

See weather overviewHow to use our weather pages